Location: Recife
(8.0585°S, 34.8848°W)
Time: 07:40:30
(UTC-03:00)

Courier 1B - Pass Details

Date: 19 April 2026
Orbit: 962 x 1209 km, 28.3° (Epoch: 13 May)

Event Time Altitude Azimuth Distance (km) Brightness Sun altitude
Rises 07:28:48 0° 246° (WSW) 4,065 10.2 29.7°
Reaches altitude 10° 07:32:50 10° 227° (SW) 3,129 9.8 30.6°
Maximum altitude 07:37:43 17° 188° (S) 2,621 9.7 31.7°
Drops below altitude 10° 07:42:39 10° 149° (SSE) 3,148 10.4 32.9°
Sets 07:46:43 0° 130° (SE) 4,099 11.1 33.9°
